| time (UTC) | temp F | wind direction | speed knots | gust knots | rain 1hr in | rain 24hr in | rain mn in | humidity % | barometer mb |
| 20260503072019 | 66 | 0.0 | 0.0 | 0.00 | 0.00 | 0.00 | 49 | 1022.0 | |
| 20260503055015 | 58 | 0.0 | 0.0 | 0.00 | 0.00 | 0.00 | 59 | 1022.3 | |
| 20260503052015 | 57 | 0.0 | 0.0 | 0.00 | 0.00 | 0.00 | 59 | 1022.2 | |
| 20260503045013 | 56 | 0.0 | 0.0 | 0.00 | 0.00 | 0.00 | 58 | 1022.1 | |
| 20260503042012 | 57 | 0.0 | 0.0 | 0.00 | 0.00 | 0.00 | 57 | 1022.0 | |
| 20260503035011 | 57 | 0.0 | 0.0 | 0.00 | 0.00 | 0.00 | 56 | 1022.0 | |
| 20260503032009 | 56 | 0.0 | 0.0 | 0.00 | 0.00 | 0.00 | 57 | 1022.0 | |
| 20260503025008 | 57 | 0.0 | 0.0 | 0.00 | 0.00 | 0.00 | 55 | 1022.0 | |
| 20260503022007 | 58 | 0.0 | 0.0 | 0.00 | 0.00 | 0.00 | 53 | 1022.2 | |
| 20260503015006 | 58 | 0.0 | 0.0 | 0.00 | 0.00 | 0.00 | 53 | 1022.4 | |
| 20260503012004 | 58 | 0.0 | 0.0 | 0.00 | 0.00 | 0.00 | 53 | 1022.4 | |
| 20260503005003 | 59 | 0.0 | 0.0 | 0.00 | 0.00 | 0.00 | 51 | 1022.5 | |
| 20260503002002 | 59 | 0.0 | 0.0 | 0.00 | 0.00 | 0.00 | 51 | 1023.0 | |
| 20260502235001 | 60 | 0.0 | 0.0 | 0.00 | 0.00 | 0.00 | 51 | 1023.2 | |
| 20260502232000 | 60 | 0.0 | 0.0 | 0.00 | 0.00 | 0.00 | 48 | 1023.3 | |
| 20260502224958 | 61 | 0.0 | 0.0 | 0.00 | 0.00 | 0.00 | 46 | 1023.4 | |
| 20260502221957 | 61 | 0.0 | 0.0 | 0.00 | 0.00 | 0.00 | 48 | 1023.5 | |
| 20260502214956 | 62 | 0.0 | 0.0 | 0.00 | 0.00 | 0.00 | 47 | 1023.6 | |
| 20260502211955 | 62 | 0.0 | 0.0 | 0.00 | 0.00 | 0.00 | 47 | 1023.4 | |
| 20260502204953 | 64 | 0.0 | 0.0 | 0.00 | 0.00 | 0.00 | 44 | 1023.4 | |
| 20260502201952 | 65 | 0.0 | 0.0 | 0.00 | 0.00 | 0.00 | 43 | 1023.4 | |
| 20260502194951 | 67 | 0.0 | 0.0 | 0.00 | 0.00 | 0.00 | 41 | 1023.3 | |
| 20260502191949 | 69 | 0.0 | 0.0 | 0.00 | 0.00 | 0.00 | 36 | 1023.0 | |
| 20260502185204 | 72 | 0.0 | 0.0 | 0.00 | 0.00 | 0.00 | 32 | 1022.7 | |
| 20260502182203 | 75 | 0.0 | 0.0 | 0.00 | 0.00 | 0.00 | 31 | 1022.3 | |
| 20260502162158 | 80 | 0.0 | 0.0 | 0.00 | 0.00 | 0.00 | 28 | 1022.5 | |
| 20260502152155 | 83 | 0.0 | 0.0 | 0.00 | 0.00 | 0.00 | 25 | 1022.8 | |
| 20260502122148 | 75 | 0.0 | 0.0 | 0.00 | 0.00 | 0.00 | 32 | 1025.6 | |
| 20260502115147 | 75 | 0.0 | 0.0 | 0.00 | 0.00 | 0.00 | 31 | 1026.0 | |
| 20260502112145 | 73 | 0.0 | 0.0 | 0.00 | 0.00 | 0.00 | 35 | 1026.5 | |
| 20260502105144 | 72 | 0.0 | 0.0 | 0.00 | 0.00 | 0.00 | 34 | 1027.0 | |
| 20260502102143 | 71 | 0.0 | 0.0 | 0.00 | 0.00 | 0.00 | 37 | 1027.5 |